Regional Weather Roundup
Issued by NWS

Home | Current Version | Previous Version | Graphics & Text | Print | Product List | Glossary On
Versions: 1 2 3 4 5 6 7 8 9 10 11 12 13 14 15 16 17 18 19 20 21 22 23 24 25 26 27 28 29 30 31 32 33 34 35 36 37 38 39 40 41 42 43 44 45 46 47 48 49 50
821
ASUS44 KLIX 220010
RWRLA
LOUISIANA WEATHER ROUNDUP
NATIONAL WEATHER SERVICE NEW ORLEANS LA
700 PM CDT TUE OCT 21 2014

NOTE: "FAIR" INDICATES FEW OR NO CLOUDS BELOW 12,000 FEET WITH NO
      SIGNIFICANT WEATHER AND/OR OBSTRUCTIONS TO VISIBILITY.
      SKY/WX - SKY CONDITION AND SIGNIFICANT WEATHER.
      TMP - AIR TEMPERATURE.    DP   - DEWPOINT TEMPERATURE.
      RH  - RELATIVE HUMIDITY.  PRES - PRESSURE.
      HX  - HEAT INDEX.         WCI  - WIND CHILL INDEX.

*  THESE STATIONS ARE NOT NWS OR FAA STATIONS AND ARE NOT UNDER
   NWS QUALITY CONTROL.

LAZ040-048-061>063-065-066-069-220100-
SOUTHEAST LOUISIANA

CITY           SKY/WX    TMP DP  RH WIND       PRES   REMARKS
N.O. AUDUBON     N/A     73  56  54 MISG        N/A
6HR MIN TEMP:  73; 6HR MAX TEMP:  82;

N.O. INTL ARPT PTCLDY    74  54  49 N3        29.98R
6HR MIN TEMP:  74; 6HR MAX TEMP:  80;

N.O. LAKEFRONT CLEAR     75  57  53 CALM      29.98R
6HR MIN TEMP:  74; 6HR MAX TEMP:  79;

N.O. DOWNTOWN* FAIR      77  52  41 E3        29.98S
6HR MIN TEMP:  77; 6HR MAX TEMP:  81;

SLIDELL        CLEAR     68  60  75 CALM      29.98R
6HR MIN TEMP:  68; 6HR MAX TEMP:  82;

BATON ROUGE    CLEAR     67  60  78 NW5       29.99R
6HR MIN TEMP:  67; 6HR MAX TEMP:  82;

BOOTHVILLE     CLEAR     72  57  59 NE3       29.98R
6HR MIN TEMP:  72; 6HR MAX TEMP:  77;

BELLE CHASSE   CLEAR     65  57  75 SE3       29.97S
6HR MIN TEMP:  65; 6HR MAX TEMP:  80;

BOGALUSA*      FAIR      69  56  65 CALM      30.00S
6HR MIN TEMP:  69; 6HR MAX TEMP:  83;

NEW ROADS*     FAIR      70  60  71 N6        30.00R
6HR MIN TEMP:  70; 6HR MAX TEMP:  80;

GONZALES*      FAIR      66  64  92 CALM      29.98S
6HR MIN TEMP:  66; 6HR MAX TEMP:  82;

HAMMOND*       CLEAR     70  57  64 CALM      30.00S
HOUMA*         CLEAR     70  57  64 NE3       29.97S
PORT FOURCHON* PTCLDY    73  57  56 E6        30.01R

$$

LAZ041-044-053-054-220100-
SOUTHWEST LOUISIANA

CITY           SKY/WX    TMP DP  RH WIND       PRES   REMARKS
LAKE CHARLES   CLEAR     69  61  75 N3        29.99R
6HR MIN TEMP:  69; 6HR MAX TEMP:  82;

LAFAYETTE      CLEAR     70  63  78 CALM      29.99R
6HR MIN TEMP:  70; 6HR MAX TEMP:  81;

PATTERSON      CLEAR     66  63  88 CALM      30.00S
6HR MIN TEMP:  66; 6HR MAX TEMP:  82;

SALT POINT       N/A     72  62  71 CALM      29.97R
6HR MIN TEMP:  72; 6HR MAX TEMP:  82;

NEW IBERIA     CLEAR     71  60  68 N3        30.00R
6HR MIN TEMP:  71; 6HR MAX TEMP:  83;

CHENAULT AIRPK NOT AVBL

$$

LAZ027-028-220100-
CENTRAL LOUISIANA

CITY           SKY/WX    TMP DP  RH WIND       PRES   REMARKS
FORT POLK      CLEAR     70  64  82 NE5       30.00S
6HR MIN TEMP:  70; 6HR MAX TEMP:  80;

ALEXANDRIA INT CLEAR     70  63  78 N5        29.99R
6HR MIN TEMP:  70; 6HR MAX TEMP:  82;

ALEXANDRIA     PTCLDY    68  65  90 CALM      30.01R
6HR MIN TEMP:  68; 6HR MAX TEMP:  81;


$$

LAZ001-002-220100-
NORTHWEST LOUISIANA

CITY           SKY/WX    TMP DP  RH WIND       PRES   REMARKS
SHREVEPORT     CLEAR     75  61  61 N5        30.02R
6HR MIN TEMP:  75; 6HR MAX TEMP:  82;

BARKSDALE AFB  CLEAR     70  62  74 NE2       30.02S
6HR MIN TEMP:  70; 6HR MAX TEMP:  82;

DTN SHREVEPORT CLEAR     69  61  75 CALM      30.02R
6HR MIN TEMP:  69; 6HR MAX TEMP:  81;


$$

LAZ014-016-220100-
NORTHEAST LOUISIANA

CITY           SKY/WX    TMP DP  RH WIND       PRES   REMARKS
MONROE         CLEAR     64  60  87 CALM      30.03R
6HR MIN TEMP:  64; 6HR MAX TEMP:  80;

TALLULAH       CLEAR     63  60  90 N3        30.01S
6HR MIN TEMP:  63; 6HR MAX TEMP:  80;


$$




USA.gov is the U.S. government's official web portal to all federal, state and local government web resources and services.